Volver al catálogo

YAOGAN-39 04C

ActivoMilitarVLEO
NORAD 58145·PAYLOAD·🇨🇳 China

Lanzado Oct 23, 2023 desde Xichang Satellite Launch Center

Loading…

Próximos Pases (próximas 24 horas)

TLE

ActualizadoSource: Space-Track

Época: Sep 14, 2026, 05:41 UTC

1 58145U 23163E   26257.23747609  .00003873  00000-0  19514-3 0  9992
2 58145  34.9904 173.7604 0002288 259.4216 100.6239 15.16642825160852

Sigue YAOGAN-39 04C en tiempo real con AllMySat

Download on the App Store